Regional Weather Roundup
Issued by NWS Sioux Falls, SD

Home | Current Version | Previous Version | Graphics & Text | Print | Product List | Glossary On
Versions: 1 2 3 4 5 6 7 8 9 10 11 12 13 14 15 16 17 18 19 20 21 22 23 24 25 26 27 28 29 30 31 32 33 34 35 36 37 38 39 40 41 42 43 44 45 46 47 48 49 50
000
ASUS43 KFSD 222002
RWRFSD

WEATHER ROUNDUP FOR SE SOUTH DAKOTA/SW MINNESOTA/NW IOWA
NATIONAL WEATHER SERVICE SIOUX FALLS SD
300 PM CDT FRI MAY 22 2015

NOTE: "FAIR" INDICATES FEW OR NO CLOUDS BELOW 12,000 FEET WITH NO
SIGNIFICANT WEATHER AND OR OBSTRUCTIONS TO VISIBILITY.


SDZ038>040-050-052>070-222100-
SOUTHEAST SOUTH DAKOTA

CITY           SKY/WX    TMP DP  RH WIND       PRES   REMARKS
BROOKINGS      MOSUNNY   73  34  23 S5        30.17F
CHAMBERLAIN    CLOUDY    67  41  38 SE18G26   30.15F
HURON          PTSUNNY   75  37  25 SE7G18    30.15F
MADISON        FAIR      72  32  23 S5        30.18S
MITCHELL       CLOUDY    73  39  29 S15       30.17S
SIOUX FALLS    CLOUDY    74  40  29 VRB3      30.18S
WINNER         FAIR      67  37  33 SE15G26   30.15F
YANKTON        CLOUDY    72  37  28 S12       30.17F
$$

MNZ071-072-080-081-089-090-097-098-222100-
SOUTHWEST MINNESOTA

CITY           SKY/WX    TMP DP  RH WIND       PRES   REMARKS
FAIRMONT       MOSUNNY   73  28  19 E7        30.19F
JACKSON        PTSUNNY   73  28  19 CALM      30.20F
LUVERNE        CLOUDY    75  30  19 SE8       30.19S
MARSHALL       FAIR      73  32  21 SE3       30.18F
MONTEVIDEO     SUNNY     77  34  20 CALM      30.19F
REDWOOD FALLS  SUNNY     75  31  19 S7        30.19F
TRACY          MOSUNNY   75  34  22 E3        30.20S
WINDOM         MOSUNNY   73  25  16 CALM      30.19F
WORTHINGTON    CLOUDY    73  30  20 SW8       30.19S
$$

IAZ001>003-012>014-020>022-031-032-NEZ013-014-SDZ071-222100-
NORTHWEST IOWA

CITY           SKY/WX    TMP DP  RH WIND       PRES   REMARKS
DENISON        CLOUDY    70  43  37 SW10G18   30.19S
ESTHERVILLE    PTSUNNY   73  34  23 E6        30.19F
SIOUX CITY     CLOUDY    73  39  29 SW12      30.20S
SPENCER        CLOUDY    74  31  20 N3        30.20S
$$

ABBREVIATIONS USED IN REMARKS
   TC - TEMPERATURE IN CELSIUS
  WCI - WIND CHILL INDEX
   HX - HEAT INDEX
  VSB - VISIBILITY



USA.gov is the U.S. government's official web portal to all federal, state and local government web resources and services.